sat.trackr.live / text

‹ back to catalog

STARLINK-5312

NORAD 55311 · 2023-010AU

PAYLOAD ACTIVE UNKNOWN

§ Identity

Operator
Country
US
Launch date
2023-01-19
Launch site
AFWTR
Launch vehicle
Mass (kg)
RCS (m²)

Purposes: comms

External: N2YO · Heavens-Above · Gunter

§ Orbital elements

Epoch: 2026-09-20T22:00:03.000096Z

Period
95.50 min
Inclination
70.0017°
Eccentricity
0.0001116
Mean motion
15.07880840 rev/d
Perigee alt
541.9 km
Apogee alt
543.4 km
Semi-major
6,920.8 km
B*
3.7163e-3
RAAN
232.2134°
Arg perigee
228.1839°
Mean anomaly
203.2893°
Rev number
576

§ Raw data

STARLINK-53121 55311U 23010AU  26263.91670139  .00057469  00000+0  37163-2 0  99982 55311  70.0017 232.2134 0001116 228.1839 203.2893 15.07880840  5767

JSON: /api/v1/satellites/55311 · /tle

For live sub-satellite position, see the globe view (requires WebGL).

§ Visibility from observer

Set your observer location to see the next 7 days of passes ≥ 10°. The values pass through the URL so the page stays shareable.

No JS? Fill the form by hand. The geolocation button needs JavaScript.